Regional Weather Roundup
Issued by NWS Huntsville, AL

Home | Current Version | Previous Version | Text Only | Print | Product List | Glossary On
Versions: 1 2 3 4 5 6 7 8 9 10 11 12 13 14 15 16 17 18 19 20 21 22 23 24 25 26 27
000
ASUS44 KHUN 162110
RWRHUN

WEATHER ROUNDUP FOR THE TENNESSEE VALLEY
NATIONAL WEATHER SERVICE HUNTSVILLE AL
400 PM CDT WED AUG 16 2017

ALZ001>004-162200-
NORTHWEST ALABAMA

CITY           SKY/WX    TMP DP  RH WIND       PRES   REMARKS
COURTLAND HCN    N/A     88 N/A N/A S5          N/A
RUSSELLVILLE     N/A     86 N/A N/A MISG        N/A
SHOALS AIRPORT MOSUNNY   90  74  59 SW10      30.00F HX  99
SHOALS TVA RES   N/A     90 N/A N/A MISG        N/A
$$

ALZ005>007-016-162200-
NORTH CENTRAL ALABAMA

CITY           SKY/WX    TMP DP  RH WIND       PRES   REMARKS
CULLMAN AG STN   N/A     86 N/A N/A CALM        N/A
DECATUR AP     MOSUNNY   89  77  67 VRB5      30.00F HX 101
HUNTSVILLE AP  MOSUNNY   89  77  67 CALM      30.00F HX 101
MERIDIANVILLE  PTSUNNY   86  70  58 CALM      30.01F HX  90
REDSTONE ARSN  SUNNY     87  74  64 CALM      29.99F HX  96
VINEMONT AP    FAIR      89  73  60 S7        30.05F HX  97
$$

ALZ008>010-162200-
NORTHEAST ALABAMA

CITY           SKY/WX    TMP DP  RH WIND       PRES   REMARKS
ALBERTVILLE    MOSUNNY   86  79  79 S3        30.02F HX  99
FORT PAYNE     SUNNY     86  70  58 S5        30.02F HX  90
SCOTTSBORO HCN   N/A     86 N/A N/A MISG        N/A
VALLEY HEAD      N/A     86 N/A N/A MISG        N/A
$$

TNZ076-096-097-162200-
SOUTHEASTERN MIDDLE TENNESSEE

CITY           SKY/WX    TMP DP  RH WIND       PRES   REMARKS
TULLAHOMA      MOSUNNY   88  72  58 W7        30.04S HX  94
WINCHESTER     SUNNY     88  75  66 SW6       30.02F HX  97
$$

...SURROUNDING SITES...

CITY           SKY/WX    TMP DP  RH WIND       PRES   REMARKS
ATLANTA        MOSUNNY   89  73  59 W9        30.03F HX  97
ANNISTON       MOSUNNY   90  73  57 SW6       30.02F HX  98
BIRMINGHAM     PTSUNNY   89  72  56 W3        30.04F HX  96
CHATTANOOGA    MOSUNNY   93  70  46 VRB7      29.99F HX  99
CORINTH        FAIR      88  75  66 S10       29.98S HX  97
DALTON         NOT AVBL
GADSDEN        PTSUNNY   91  75  59 VRB7      30.01F HX 101
GOLDEN TRNGL   TSTM      90  72  55 S12G23    29.96F HX  96
HALEYVILLE     PTSUNNY   85  77  77 SW12      30.05S HX  95
JACKSON TN     PTSUNNY   89  76  65 S9        29.96F HX 100
MEMPHIS        MOSUNNY   89  76  65 SW9       29.97S HX 100
NASHVILLE      PTSUNNY   92  73  53 SW10      29.98F HX 100
OXFORD MS        N/A    N/A N/A N/A MISG        N/A
ROME           MOSUNNY   90  75  61 S6        30.00F HX 100
SAVANNAH       MOSUNNY   90  75  62 SW8G15    29.97S HX 100
SELMER         MOSUNNY   88  75  66 W7        29.98S HX  97
TUPELO         SUNNY     89  73  59 S8        30.00F HX  97
TUSCALOOSA     MOSUNNY   89  77  67 VRB5      30.01F HX 101
$$

...GULF COAST WEATHER...

CITY           SKY/WX    TMP DP  RH WIND       PRES   REMARKS
GULFPORT       CLOUDY    88  75  65 N5        30.03S HX  97
PASCAGOULA     SUNNY     90  74  59 VRB3      30.03F HX  99
MOBILE         PTSUNNY   89  74  60 S9        30.04F HX  98
GULF SHORES    PTCLDY    89  77  67 SW9       30.04S HX 100
PENSACOLA      PTSUNNY   88  77  69 S7        30.03F HX 100
DESTIN         SUNNY     92  74  55 W8        30.02F HX 101
PANAMA CITY    SUNNY     90  77  64 W12       30.02F HX 102
APPALACHICOLA  SUNNY     91  79  67 W14       30.02F HX 107
$$





USA.gov is the U.S. government's official web portal to all federal, state and local government web resources and services.